SPKOL LGAV-EBCI

Flight info

Callsign SPKOL
Flight time N/A
Altitude 38000
Route KOR UL53 IXONI DCT VARDI DCT DIMIS DCT KOFER DCT NERRA DCT UNIPA DCT SABAD DCT VEKEN DCT UMVEG DCT KPT L608 TEDGO DCT IDOVI Z104 ODVUX Z104 GESLO N852 LNO
Aircraft B738/M-SDE2E3FGHIRWXY/LB1

Departure

Time N/A
Airport Athens Eleftherios Venizelos International Airport (LGAV)

Arrival

Time 2026-04-30 18:52
Airport Brussels South Charleroi Airport (EBCI)
Time Latitude Longitude Altitude Speed Heading
2026-04-30 17:39 46.22048 13.85384 38310 ft 435 kts 319°
2026-04-30 17:42 46.44009 13.55130 38288 ft 439 kts 319°
2026-04-30 17:43 46.54995 13.39860 38273 ft 438 kts 319°
2026-04-30 17:44 46.60455 13.29119 38280 ft 444 kts 306°
2026-04-30 17:44 46.65438 13.17747 38260 ft 444 kts 306°
2026-04-30 17:47 46.80451 12.83823 38261 ft 444 kts 307°
2026-04-30 17:48 46.91559 12.58480 38254 ft 442 kts 307°
2026-04-30 17:50 47.04870 12.27811 38235 ft 445 kts 307°
2026-04-30 17:52 47.14734 12.04855 38244 ft 444 kts 307°
2026-04-30 17:54 47.28495 11.69192 38248 ft 448 kts 302°
2026-04-30 17:56 47.39823 11.36782 38268 ft 440 kts 302°
2026-04-30 17:58 47.48267 11.12442 38263 ft 446 kts 302°
2026-04-30 18:00 47.59552 10.79536 38287 ft 449 kts 302°
2026-04-30 18:01 47.66567 10.58872 38282 ft 450 kts 302°
2026-04-30 18:02 47.75367 10.34537 38280 ft 438 kts 315°
2026-04-30 18:03 47.82114 10.25718 38289 ft 429 kts 326°
2026-04-30 18:04 47.89083 10.17337 38268 ft 429 kts 326°
2026-04-30 18:06 48.07564 9.94645 38294 ft 433 kts 326°
2026-04-30 18:08 48.23811 9.74500 38295 ft 435 kts 325°
2026-04-30 18:10 48.42366 9.51054 38266 ft 438 kts 324°
2026-04-30 18:11 48.58526 9.30156 38291 ft 439 kts 324°
2026-04-30 18:13 48.70128 9.15102 38270 ft 440 kts 323°
2026-04-30 18:14 48.81715 8.99999 38291 ft 441 kts 323°
2026-04-30 18:15 48.95688 8.81651 38293 ft 444 kts 323°
2026-04-30 18:16 49.04988 8.69361 38293 ft 445 kts 323°
2026-04-30 18:17 49.09633 8.63198 38293 ft 446 kts 323°
2026-04-30 18:18 49.16629 8.53886 38294 ft 447 kts 323°
2026-04-30 18:18 49.21310 8.47636 38294 ft 447 kts 323°
2026-04-30 18:19 49.25960 8.41411 38296 ft 447 kts 323°
2026-04-30 18:19 49.30636 8.35133 38300 ft 447 kts 323°
2026-04-30 18:20 49.35313 8.28838 38302 ft 447 kts 323°
2026-04-30 18:20 49.39987 8.22532 38299 ft 447 kts 323°
2026-04-30 18:21 49.44657 8.16214 38311 ft 447 kts 323°
2026-04-30 18:21 49.49294 8.09924 38298 ft 447 kts 323°
2026-04-30 18:22 49.53953 8.03587 38304 ft 447 kts 322°
2026-04-30 18:22 49.60932 7.94063 38299 ft 447 kts 322°
2026-04-30 18:23 49.65580 7.87699 38301 ft 446 kts 322°
2026-04-30 18:23 49.70188 7.81374 38305 ft 446 kts 322°
2026-04-30 18:24 49.77145 7.71792 38318 ft 447 kts 322°
2026-04-30 18:25 49.81782 7.65383 38319 ft 447 kts 321°
2026-04-30 18:25 49.88739 7.55736 38323 ft 448 kts 321°
2026-04-30 18:26 49.95680 7.46072 38324 ft 449 kts 321°
2026-04-30 18:27 50.02623 7.36364 38046 ft 439 kts 321°
2026-04-30 18:27 50.04875 7.33177 37434 ft 438 kts 318°
2026-04-30 18:28 50.07976 7.24860 35508 ft 463 kts 284°
2026-04-30 18:28 50.08369 7.19848 34600 ft 471 kts 274°
2026-04-30 18:28 50.08662 7.09643 32757 ft 478 kts 274°
2026-04-30 18:29 50.08834 7.04458 31823 ft 481 kts 274°
2026-04-30 18:29 50.09466 6.88730 28491 ft 492 kts 274°
2026-04-30 18:30 50.09439 6.78067 25883 ft 486 kts 269°
2026-04-30 18:30 50.10194 6.67862 23863 ft 462 kts 283°
2026-04-30 18:31 50.10847 6.63074 23193 ft 443 kts 283°
2026-04-30 18:31 50.12030 6.54087 22354 ft 416 kts 282°
2026-04-30 18:32 50.13188 6.45019 22287 ft 434 kts 282°
2026-04-30 18:32 50.13768 6.40408 22277 ft 433 kts 282°
2026-04-30 18:32 50.14921 6.31179 22273 ft 434 kts 281°
2026-04-30 18:33 50.15495 6.26556 22280 ft 434 kts 281°
2026-04-30 18:33 50.16638 6.17300 22278 ft 435 kts 281°
2026-04-30 18:33 50.17201 6.12729 22276 ft 435 kts 281°
2026-04-30 18:34 50.17768 6.08100 22285 ft 435 kts 281°
2026-04-30 18:34 50.18898 5.98837 22272 ft 434 kts 281°
2026-04-30 18:34 50.19460 5.94206 22267 ft 435 kts 281°
2026-04-30 18:35 50.20022 5.89558 21995 ft 436 kts 281°
2026-04-30 18:35 50.20579 5.84929 21583 ft 432 kts 281°
2026-04-30 18:35 50.21131 5.80334 21056 ft 430 kts 281°
2026-04-30 18:36 50.22208 5.71309 20031 ft 422 kts 280°
2026-04-30 18:36 50.22741 5.66820 19527 ft 419 kts 280°
2026-04-30 18:36 50.23794 5.57915 18542 ft 415 kts 280°
2026-04-30 18:37 50.24313 5.53499 17984 ft 413 kts 280°
2026-04-30 18:37 50.24829 5.49100 17441 ft 410 kts 279°
2026-04-30 18:37 50.25338 5.44738 16903 ft 407 kts 279°
2026-04-30 18:37 50.25842 5.40405 16372 ft 403 kts 279°
2026-04-30 18:38 50.26340 5.36110 15856 ft 401 kts 279°
2026-04-30 18:38 50.26832 5.31852 15342 ft 396 kts 279°
2026-04-30 18:38 50.27317 5.27650 14830 ft 388 kts 279°
2026-04-30 18:38 50.27785 5.23573 14325 ft 375 kts 279°
2026-04-30 18:39 50.28237 5.19621 13799 ft 364 kts 279°
2026-04-30 18:39 50.28671 5.15826 13255 ft 355 kts 279°
2026-04-30 18:39 50.29098 5.12074 12707 ft 347 kts 279°
2026-04-30 18:39 50.29514 5.08401 12177 ft 340 kts 279°
2026-04-30 18:40 50.29922 5.04794 11661 ft 334 kts 279°
2026-04-30 18:40 50.30321 5.01252 11149 ft 327 kts 279°
2026-04-30 18:40 50.30712 4.97775 10605 ft 322 kts 279°
2026-04-30 18:40 50.31097 4.94345 10047 ft 318 kts 278°
2026-04-30 18:41 50.31476 4.90952 9452 ft 315 kts 278°
2026-04-30 18:41 50.31851 4.87591 8860 ft 312 kts 278°
2026-04-30 18:41 50.32216 4.84311 8295 ft 309 kts 278°
2026-04-30 18:41 50.32582 4.81009 7724 ft 307 kts 278°
2026-04-30 18:42 50.32945 4.77733 7153 ft 304 kts 278°
2026-04-30 18:42 50.33659 4.71250 6024 ft 300 kts 277°
2026-04-30 18:42 50.34011 4.68040 5452 ft 298 kts 277°
2026-04-30 18:45 50.34185 4.39361 3015 ft 229 kts 262°
2026-04-30 18:45 50.34090 4.36857 3003 ft 232 kts 262°
2026-04-30 18:45 50.33995 4.34334 3016 ft 233 kts 263°
2026-04-30 18:46 50.33886 4.31787 3017 ft 236 kts 262°
2026-04-30 18:46 50.33772 4.29222 2995 ft 235 kts 262°
2026-04-30 18:46 50.33741 4.26684 2987 ft 233 kts 276°
2026-04-30 18:46 50.34385 4.24426 2977 ft 225 kts 314°
2026-04-30 18:47 50.35581 4.22972 3011 ft 216 kts 331°
2026-04-30 18:47 50.36860 4.21781 2988 ft 215 kts 343°
2026-04-30 18:47 50.38236 4.21589 2973 ft 187 kts 29°
2026-04-30 18:47 50.39095 4.22762 2986 ft 153 kts 77°
2026-04-30 18:48 50.39334 4.24358 3008 ft 155 kts 81°
2026-04-30 18:48 50.39528 4.26038 2945 ft 163 kts 78°
2026-04-30 18:48 50.40171 4.27509 2812 ft 162 kts 57°
2026-04-30 18:48 50.40827 4.28869 2644 ft 151 kts 63°
2026-04-30 18:49 50.41412 4.30161 2517 ft 142 kts 62°
2026-04-30 18:49 50.42003 4.31394 2401 ft 143 kts 73°
2026-04-30 18:49 50.42360 4.32874 2218 ft 149 kts 71°
2026-04-30 18:49 50.42798 4.34323 2018 ft 147 kts 72°
2026-04-30 18:50 50.43214 4.35729 1824 ft 141 kts 72°
2026-04-30 18:50 50.43619 4.37106 1669 ft 138 kts 72°
2026-04-30 18:50 50.44003 4.38489 1456 ft 139 kts 72°
2026-04-30 18:50 50.44402 4.39889 1249 ft 141 kts 69°
2026-04-30 18:51 50.44821 4.41286 983 ft 145 kts 70°
2026-04-30 18:51 50.45248 4.42728 784 ft 146 kts 68°
2026-04-30 18:51 50.45667 4.44175 636 ft 145 kts 69°
2026-04-30 18:51 50.46054 4.45527 592 ft 113 kts 66°
2026-04-30 18:52 50.46284 4.46316 588 ft 64 kts 65°
2026-04-30 18:52 50.46420 4.46785 593 ft 30 kts 60°
2026-04-30 18:52 50.46568 4.46853 593 ft 12 kts 335°
2026-04-30 18:52 50.46588 4.46839 592 ft 0 kts 333°
2026-04-30 18:55 50.46643 4.46798 590 ft 0 kts 337°
2026-04-30 18:55 50.46668 4.46782 589 ft 11 kts 339°
2026-04-30 18:56 50.46797 4.47056 584 ft 0 kts 66°
2026-04-30 18:56 50.46797 4.47058 584 ft 0 kts 66°
2026-04-30 18:56 50.46798 4.47060 584 ft 2 kts 65°
2026-04-30 18:57 50.46872 4.47097 584 ft 0 kts 335°